| time (UTC) | temp C | wind direction | speed KPH | gust KPH | rain 1hr cm | rain 24hr cm | rain mn cm | humidity % | barometer mb |
| 20260902060010 | 17 | 167 | 1.6 | 8.0 | 0.00 | 0.33 | 0.00 | 97 | 1017.4 |
| 20260902054522 | 17 | 177 | 4.8 | 9.7 | 0.00 | 0.33 | 0.00 | 97 | 1017.3 |
| 20260902053025 | 17 | 194 | 3.2 | 11.3 | 0.00 | 0.33 | 0.00 | 97 | 1017.2 |
| 20260902051528 | 17 | 164 | 3.2 | 8.0 | 0.00 | 0.33 | 0.00 | 97 | 1017.3 |
| 20260902050010 | 17 | 171 | 1.6 | 6.4 | 0.00 | 0.33 | 0.00 | 96 | 1017.4 |
| 20260902044516 | 17 | 171 | 0.0 | 6.4 | 0.00 | 0.33 | 0.00 | 96 | 1017.3 |
| 20260902043029 | 17 | 150 | 1.6 | 9.7 | 0.00 | 0.33 | 0.00 | 96 | 1017.0 |
| 20260902041527 | 17 | 155 | 3.2 | 11.3 | 0.00 | 0.33 | 0.00 | 96 | 1016.9 |
| 20260902040034 | 17 | 186 | 3.2 | 8.0 | 0.00 | 0.33 | 0.00 | 96 | 1016.7 |
| 20260902034512 | 17 | 160 | 3.2 | 8.0 | 0.00 | 0.33 | 0.33 | 96 | 1016.8 |
| 20260902033029 | 17 | 167 | 1.6 | 6.4 | 0.00 | 0.33 | 0.33 | 96 | 1016.9 |
| 20260902031535 | 17 | 182 | 0.0 | 8.0 | 0.00 | 0.33 | 0.33 | 95 | 1016.7 |
| 20260902030027 | 18 | 164 | 4.8 | 12.9 | 0.00 | 0.33 | 0.33 | 95 | 1016.7 |
| 20260902024509 | 18 | 160 | 4.8 | 11.3 | 0.00 | 0.33 | 0.33 | 94 | 1016.8 |
| 20260902023033 | 18 | 158 | 4.8 | 9.7 | 0.00 | 0.33 | 0.33 | 94 | 1016.9 |
| 20260902021531 | 18 | 158 | 1.6 | 8.0 | 0.00 | 0.33 | 0.33 | 94 | 1016.9 |
| 20260902020029 | 19 | 148 | 3.2 | 11.3 | 0.00 | 0.33 | 0.33 | 93 | 1016.9 |
| 20260902014530 | 19 | 166 | 4.8 | 9.7 | 0.00 | 0.33 | 0.33 | 93 | 1017.0 |
| 20260902013012 | 19 | 147 | 1.6 | 12.9 | 0.00 | 0.33 | 0.33 | 92 | 1016.8 |
| 20260902011516 | 20 | 126 | 4.8 | 9.7 | 0.00 | 0.33 | 0.33 | 92 | 1016.5 |
| 20260902010029 | 20 | 174 | 1.6 | 8.0 | 0.00 | 0.33 | 0.33 | 92 | 1016.5 |
| 20260902004530 | 20 | 154 | 1.6 | 8.0 | 0.00 | 0.33 | 0.33 | 92 | 1016.2 |
| 20260902003034 | 20 | 182 | 0.0 | 6.4 | 0.00 | 0.33 | 0.33 | 92 | 1015.9 |
| 20260902001512 | 20 | 167 | 1.6 | 4.8 | 0.00 | 0.33 | 0.33 | 92 | 1015.7 |
| 20260902000030 | 20 | 149 | 0.0 | 9.7 | 0.00 | 0.33 | 0.33 | 91 | 1015.5 |
| 20260901234529 | 21 | 165 | 3.2 | 8.0 | 0.00 | 0.33 | 0.33 | 90 | 1015.6 |
| 20260901233028 | 21 | 150 | 1.6 | 8.0 | 0.00 | 0.33 | 0.33 | 89 | 1015.7 |
| 20260901231531 | 22 | 182 | 3.2 | 4.8 | 0.00 | 0.33 | 0.33 | 89 | 1015.6 |
| 20260901230027 | 22 | 182 | 0.0 | 3.2 | 0.00 | 0.33 | 0.33 | 88 | 1015.6 |
| 20260901224528 | 22 | 131 | 0.0 | 6.4 | 0.00 | 0.33 | 0.33 | 87 | 1015.7 |
| 20260901223031 | 22 | 134 | 0.0 | 9.7 | 0.00 | 0.33 | 0.33 | 87 | 1015.7 |
| 20260901221534 | 22 | 178 | 4.8 | 8.0 | 0.00 | 0.33 | 0.33 | 87 | 1015.6 |
| 20260901220054 | 22 | 112 | 0.0 | 9.7 | 0.00 | 0.33 | 0.33 | 88 | 1015.7 |
| 20260901214523 | 22 | 136 | 4.8 | 8.0 | 0.00 | 0.33 | 0.33 | 88 | 1015.5 |
| 20260901213100 | 22 | 178 | 1.6 | 12.9 | 0.00 | 0.33 | 0.33 | 88 | 1015.5 |
| 20260901211531 | 22 | 205 | 4.8 | 12.9 | 0.00 | 0.33 | 0.33 | 87 | 1015.4 |
| 20260901210031 | 22 | 178 | 4.8 | 11.3 | 0.00 | 0.33 | 0.33 | 87 | 1015.3 |
| 20260901204526 | 22 | 169 | 3.2 | 11.3 | 0.00 | 0.33 | 0.33 | 87 | 1015.4 |
| 20260901203047 | 23 | 170 | 4.8 | 9.7 | 0.00 | 0.33 | 0.33 | 86 | 1015.5 |
| 20260901201528 | 23 | 196 | 1.6 | 4.8 | 0.00 | 0.33 | 0.33 | 86 | 1015.4 |
| 20260901200037 | 23 | 208 | 1.6 | 11.3 | 0.00 | 0.33 | 0.33 | 86 | 1015.4 |
| 20260901194540 | 23 | 150 | 1.6 | 6.4 | 0.00 | 0.33 | 0.33 | 86 | 1015.2 |
| 20260901193021 | 23 | 188 | 1.6 | 4.8 | 0.00 | 0.33 | 0.33 | 86 | 1015.1 |
| 20260901191527 | 22 | 188 | 1.6 | 3.2 | 0.00 | 0.33 | 0.33 | 88 | 1015.2 |
| 20260901190032 | 22 | 188 | 0.0 | 3.2 | 0.00 | 0.33 | 0.33 | 89 | 1015.2 |
| 20260901184534 | 22 | 188 | 0.0 | 6.4 | 0.00 | 0.33 | 0.33 | 88 | 1015.2 |
| 20260901183041 | 22 | 144 | 1.6 | 8.0 | 0.00 | 0.33 | 0.33 | 88 | 1015.1 |
| 20260901181526 | 22 | 182 | 4.8 | 12.9 | 0.00 | 0.33 | 0.33 | 87 | 1015.0 |
| 20260901180031 | 22 | 142 | 1.6 | 8.0 | 0.00 | 0.33 | 0.33 | 88 | 1014.9 |
| 20260901174532 | 23 | 26 | 3.2 | 12.9 | 0.00 | 0.33 | 0.33 | 85 | 1014.9 |
| 20260901173049 | 22 | 169 | 0.0 | 6.4 | 0.00 | 0.33 | 0.33 | 85 | 1014.7 |
| 20260901171526 | 22 | 256 | 1.6 | 8.0 | 0.00 | 0.33 | 0.33 | 86 | 1014.7 |
| 20260901170033 | 22 | 198 | 1.6 | 6.4 | 0.00 | 0.33 | 0.33 | 86 | 1014.8 |
| 20260901164510 | 23 | 252 | 1.6 | 9.7 | 0.00 | 0.33 | 0.33 | 87 | 1014.8 |
| 20260901163015 | 22 | 144 | 3.2 | 12.9 | 0.00 | 0.36 | 0.33 | 87 | 1014.6 |
| 20260901161520 | 21 | 134 | 4.8 | 12.9 | 0.00 | 0.36 | 0.33 | 91 | 1014.7 |
| 20260901160031 | 21 | 154 | 4.8 | 12.9 | 0.00 | 0.36 | 0.33 | 92 | 1014.8 |
| 20260901154530 | 20 | 131 | 6.4 | 11.3 | 0.03 | 0.36 | 0.33 | 92 | 1014.9 |
| 20260901153012 | 20 | 146 | 6.4 | 9.7 | 0.03 | 0.36 | 0.33 | 93 | 1014.9 |
| 20260901151518 | 20 | 172 | 8.0 | 14.5 | 0.03 | 0.36 | 0.33 | 93 | 1014.7 |
| 20260901150024 | 20 | 172 | 8.0 | 16.1 | 0.03 | 0.36 | 0.33 | 97 | 1014.6 |
| 20260901144530 | 19 | 149 | 11.3 | 20.9 | 0.00 | 0.33 | 0.30 | 98 | 1014.6 |
| 20260901143042 | 18 | 142 | 8.0 | 16.1 | 0.00 | 0.33 | 0.30 | 98 | 1014.4 |
| 20260901141516 | 18 | 190 | 6.4 | 16.1 | 0.00 | 0.33 | 0.30 | 98 | 1014.5 |
| 20260901140028 | 17 | 150 | 6.4 | 12.9 | 0.00 | 0.33 | 0.30 | 98 | 1014.6 |
| 20260901134527 | 17 | 132 | 3.2 | 14.5 | 0.00 | 0.33 | 0.30 | 99 | 1014.8 |
| 20260901133029 | 17 | 132 | 4.8 | 11.3 | 0.00 | 0.33 | 0.30 | 99 | 1014.8 |
| 20260901131514 | 17 | 175 | 6.4 | 11.3 | 0.00 | 0.33 | 0.30 | 99 | 1014.7 |
| 20260901130034 | 17 | 165 | 4.8 | 12.9 | 0.00 | 0.33 | 0.30 | 99 | 1014.9 |
| 20260901124523 | 17 | 136 | 8.0 | 14.5 | 0.00 | 0.33 | 0.30 | 99 | 1015.0 |
| 20260901123028 | 17 | 162 | 6.4 | 14.5 | 0.00 | 0.33 | 0.30 | 99 | 1015.1 |
| 20260901121532 | 17 | 171 | 6.4 | 16.1 | 0.00 | 0.33 | 0.30 | 99 | 1015.1 |
| 20260901120027 | 17 | 140 | 4.8 | 12.9 | 0.00 | 0.33 | 0.30 | 99 | 1015.2 |
| 20260901114521 | 17 | 161 | 4.8 | 9.7 | 0.00 | 0.33 | 0.30 | 99 | 1015.2 |
| 20260901113034 | 17 | 157 | 3.2 | 8.0 | 0.00 | 0.33 | 0.30 | 98 | 1015.2 |
| 20260901111532 | 17 | 154 | 1.6 | 9.7 | 0.00 | 0.33 | 0.30 | 98 | 1015.2 |
| 20260901110040 | 17 | 174 | 4.8 | 9.7 | 0.00 | 0.33 | 0.30 | 98 | 1014.7 |
| 20260901104519 | 17 | 195 | 1.6 | 9.7 | 0.00 | 0.33 | 0.30 | 99 | 1015.1 |
| 20260901103028 | 17 | 130 | 0.0 | 6.4 | 0.00 | 0.33 | 0.30 | 98 | 1015.1 |
| 20260901101530 | 17 | 167 | 4.8 | 8.0 | 0.03 | 0.33 | 0.30 | 98 | 1015.1 |
| 20260901100033 | 17 | 204 | 1.6 | 8.0 | 0.05 | 0.33 | 0.30 | 98 | 1015.2 |
| 20260901094534 | 17 | 170 | 1.6 | 8.0 | 0.05 | 0.33 | 0.30 | 98 | 1015.3 |
| 20260901093024 | 17 | 195 | 1.6 | 9.7 | 0.05 | 0.33 | 0.30 | 98 | 1015.4 |
| 20260901091525 | 17 | 213 | 1.6 | 4.8 | 0.03 | 0.30 | 0.28 | 98 | 1015.5 |
| 20260901090028 | 17 | 119 | 1.6 | 4.8 | 0.00 | 0.28 | 0.25 | 98 | 1015.5 |
| 20260901084530 | 17 | 209 | 1.6 | 4.8 | 0.03 | 0.28 | 0.25 | 98 | 1015.3 |
| 20260901083033 | 17 | 154 | 1.6 | 9.7 | 0.03 | 0.28 | 0.25 | 98 | 1015.3 |
| 20260901081506 | 17 | 151 | 4.8 | 9.7 | 0.05 | 0.28 | 0.25 | 98 | 1015.1 |
| 20260901080006 | 17 | 184 | 3.2 | 8.0 | 0.20 | 0.28 | 0.25 | 98 | 1015.4 |
| 20260901074508 | 17 | 174 | 0.0 | 9.7 | 0.23 | 0.25 | 0.23 | 98 | 1015.5 |
| 20260901073007 | 17 | 187 | 1.6 | 8.0 | 0.23 | 0.25 | 0.23 | 98 | 1015.7 |
| 20260901071518 | 17 | 152 | 4.8 | 9.7 | 0.20 | 0.23 | 0.20 | 98 | 1015.7 |
| 20260901070017 | 17 | 170 | 3.2 | 9.7 | 0.05 | 0.08 | 0.05 | 97 | 1015.7 |
| 20260901064505 | 17 | 194 | 4.8 | 8.0 | 0.00 | 0.03 | 0.00 | 97 | 1016.0 |
| 20260901063007 | 17 | 209 | 4.8 | 9.7 | 0.00 | 0.03 | 0.00 | 97 | 1016.1 |
| 20260901061508 | 17 | 157 | 3.2 | 9.7 | 0.00 | 0.03 | 0.00 | 96 | 1016.3 |